Weather reports worldwide

Advertisment
Oslo-Blindern, Norway (1492): temperature & dewpoint: 25.09.2020 15:00:00 - 01.10.2020 15:00:00 (CEST)Oslo-Blindern, Norway (1492): wind speed & gusts: 25.09.2020 15:00:00 - 01.10.2020 15:00:00 (CEST)Oslo-Blindern, Norway (1492): wind direction: 25.09.2020 15:00:00 - 01.10.2020 15:00:00 (CEST)Oslo-Blindern, Norway (1492): reduced air pressure: 25.09.2020 15:00:00 - 01.10.2020 15:00:00 (CEST)Oslo-Blindern, Norway (1492): visibility: 25.09.2020 15:00:00 - 01.10.2020 15:00:00 (CEST)Oslo-Blindern, Norway (1492): precipitation: 25.09.2020 15:00:00 - 01.10.2020 15:00:00 (CEST)
Date & Time tt [°C] td [°C] ff [km/h] ff [kn] fx [km/h] fx [kn] dd ppp [hPa] vv [km] rr [mm]
01.10.2020 15:00:00 - - - - - - - - - -
01.10.2020 14:00:00 12,2 7,3 14 7 24 13 ENE 1015,8 65 0,0
01.10.2020 13:00:00 11,9 7,6 9 5 22 12 ENE 1015,9 50 0,0
01.10.2020 12:00:00 11,4 8,6 11 6 22 12 ENE 1016,3 41 0,0
01.10.2020 11:00:00 11,3 8,9 14 8 31 17 E 1016,4 30 0,0
01.10.2020 10:00:00 11,8 9,7 11 6 28 15 E 1016,1 41 0,0
01.10.2020 09:00:00 12,1 9,7 16 9 27 15 E 1015,7 43 0,0
01.10.2020 08:00:00 12,1 10,0 10 6 22 12 NE 1015,5 40 0,0
01.10.2020 07:00:00 12,3 10,0 5 3 20 11 NNE 1015,2 50 0,0
01.10.2020 06:00:00 12,2 10,1 6 3 14 7 ENE 1015,1 50 0,0
01.10.2020 05:00:00 12,3 10,2 8 4 13 7 NE 1015,2 50 0,0
01.10.2020 04:00:00 12,5 9,9 6 3 16 8 ENE 1015,4 50 0,0
01.10.2020 03:00:00 12,8 9,8 7 4 19 10 E 1015,5 50 0,0
01.10.2020 02:00:00 12,9 10,1 10 5 20 11 ENE 1015,7 50 0,0
01.10.2020 01:00:00 12,6 10,2 6 4 13 7 ENE 1016,1 50 0,0
01.10.2020 00:00:00 12,8 10,2 6 4 15 8 E 1016,4 50 0,0
30.09.2020 23:00:00 13,0 10,7 5 3 15 8 E 1016,4 50 0,0
30.09.2020 22:00:00 13,2 10,7 6 3 18 10 ESE 1016,5 - 0,0
30.09.2020 21:00:00 13,2 11,1 7 4 14 7 ESE 1016,5 35 0,0
30.09.2020 20:00:00 13,1 11,2 5 3 11 6 NE 1016,2 50 0,0
30.09.2020 19:00:00 13,0 11,6 5 3 12 7 NNE 1016,1 43 0,0
30.09.2020 18:00:00 13,1 11,7 4 2 19 10 E 1016,0 39 0,0
30.09.2020 17:00:00 13,2 11,4 1 1 16 8 E 1015,9 35 0,3
30.09.2020 16:00:00 14,3 9,9 7 4 18 10 SSE 1015,9 26 0,0
30.09.2020 15:00:00 14,6 10,0 8 4 18 10 SSE 1015,9 - 0,0
30.09.2020 14:00:00 14,8 10,4 9 5 19 10 S 1016,1 75 0,0
30.09.2020 13:00:00 13,8 11,2 3 2 6 4 NE 1016,4 30 0,0
30.09.2020 12:00:00 12,9 10,6 4 2 7 4 ENE 1016,6 29 0,0
30.09.2020 11:00:00 12,3 10,4 4 2 7 4 ENE 1016,6 60 0,0
30.09.2020 10:00:00 11,6 9,9 2 1 10 6 E 1016,6 39 0,0
30.09.2020 09:00:00 11,3 9,9 5 3 10 5 ENE 1016,5 38 0,0
30.09.2020 08:00:00 10,8 9,7 8 4 11 6 NNE 1016,3 55 0,0
30.09.2020 07:00:00 10,8 9,9 8 4 9 5 NNE 1016,2 26 0,0
30.09.2020 06:00:00 10,8 10,2 7 4 10 5 NE 1016,1 15 0,0
30.09.2020 05:00:00 11,1 9,9 1 0 11 6 N 1016,3 26 0,0
30.09.2020 04:00:00 11,4 10,0 1 1 9 5 E 1016,6 29 0,0
30.09.2020 03:00:00 11,6 10,7 6 3 9 5 E 1016,8 20 0,0
30.09.2020 02:00:00 11,3 11,0 6 3 7 4 NE 1016,8 5 0,0
30.09.2020 01:00:00 10,9 10,6 4 2 7 4 ESE 1017,0 4,5 0,0
30.09.2020 00:00:00 11,4 11,1 5 3 7 4 E 1017,1 5 0,0
29.09.2020 23:00:00 11,7 11,2 5 3 9 5 S 1017,2 20 0,0
29.09.2020 22:00:00 11,9 11,4 2 1 7 4 E 1017,3 7 0,0
29.09.2020 21:00:00 11,8 11,2 1 1 13 7 NW 1017,0 5 0,0
29.09.2020 20:00:00 12,5 11,9 5 3 11 6 S 1016,7 15 0,0
29.09.2020 19:00:00 12,7 11,8 5 3 13 7 S 1016,5 11 0,0
29.09.2020 18:00:00 13,4 12,3 5 3 10 5 SSE 1016,2 13 0,0
29.09.2020 17:00:00 13,5 12,4 5 3 13 7 SSE 1016,1 30 0,0
29.09.2020 16:00:00 13,1 12,3 2 1 4 2 ESE 1016,1 18 0,0
29.09.2020 15:00:00 12,6 12,1 3 1 19 11 SSE 1016,2 8 0,5
29.09.2020 14:00:00 12,6 12,1 9 5 18 10 S 1016,3 3,5 1,1
29.09.2020 13:00:00 13,0 12,7 6 3 16 8 SE 1016,3 3,6 0,6
29.09.2020 12:00:00 12,8 12,3 7 4 12 6 ENE 1016,1 2,8 0,2
29.09.2020 11:00:00 12,6 12,0 8 4 13 7 ENE 1015,9 5 0,8
29.09.2020 10:00:00 12,2 11,7 9 5 13 7 NE 1015,6 7 0,3
29.09.2020 09:00:00 12,0 11,5 9 5 13 7 NE 1015,4 3,8 0,4
29.09.2020 08:00:00 12,0 11,5 9 5 16 9 NE 1015,2 4,0 0,3
29.09.2020 07:00:00 12,1 11,3 10 6 17 9 NNE 1014,9 4,0 0,0
29.09.2020 06:00:00 12,2 11,7 10 6 15 8 NNE 1014,7 26 0,1
29.09.2020 05:00:00 12,5 11,9 8 4 13 7 NE 1014,8 4,4 0,1
29.09.2020 04:00:00 12,4 12,1 7 4 10 6 NE 1014,9 7 0,1
29.09.2020 03:00:00 12,5 12,2 5 3 13 7 NE 1014,8 3,4 0,1
29.09.2020 02:00:00 13,2 11,3 6 4 13 7 ENE 1014,9 22 0,0
29.09.2020 01:00:00 13,2 11,4 3 2 8 4 S 1015,3 25 0,0
29.09.2020 00:00:00 13,4 11,3 3 2 9 5 S 1015,5 34 0,0
28.09.2020 23:00:00 13,7 10,9 8 4 10 6 NNE 1015,5 25 0,0
28.09.2020 22:00:00 13,7 10,7 8 5 11 6 NNE 1015,6 41 0,0
28.09.2020 21:00:00 13,6 10,8 4 2 6 3 NE 1015,5 40 0,0
28.09.2020 20:00:00 14,1 10,3 4 2 8 5 NE 1015,1 25 0,0
28.09.2020 19:00:00 14,1 10,5 5 3 11 6 NNE 1014,6 45 0,0
28.09.2020 18:00:00 14,2 10,0 7 4 16 9 NE 1014,3 41 0,0
28.09.2020 17:00:00 14,7 9,7 12 6 19 10 NE 1014,2 30 0,0
28.09.2020 16:00:00 14,9 9,9 9 5 19 11 NE 1014,4 31 0,0
28.09.2020 15:00:00 14,9 9,9 13 7 23 12 NE 1015,0 - 0,0
28.09.2020 14:00:00 14,7 9,7 13 7 25 13 NE 1015,5 75 0,0
28.09.2020 13:00:00 14,2 9,8 11 6 23 13 NE 1016,0 29 0,0
28.09.2020 12:00:00 12,8 9,3 12 6 22 12 NE 1016,3 33 0,0
28.09.2020 11:00:00 12,0 8,9 16 8 29 16 NNE 1016,2 75 0,0
28.09.2020 10:00:00 11,5 8,5 11 6 24 13 NNE 1016,3 41 0,1
28.09.2020 09:00:00 11,2 8,8 16 9 28 15 NE 1016,2 41 0,0
28.09.2020 08:00:00 10,5 9,3 5 3 13 7 NE 1016,2 30 0,0
28.09.2020 07:00:00 10,5 9,1 6 4 13 7 NNE 1015,9 - 0,0
28.09.2020 06:00:00 11,1 9,2 7 4 19 10 N 1016,0 29 0,0
28.09.2020 05:00:00 11,2 9,5 9 5 18 10 NNE 1016,4 31 0,0
28.09.2020 04:00:00 11,5 9,2 11 6 25 13 NNE 1016,9 22 0,0
28.09.2020 03:00:00 11,8 9,5 15 8 24 13 NNE 1017,1 28 0,0
28.09.2020 02:00:00 12,0 9,9 13 7 25 14 NNE 1017,4 25 0,0
28.09.2020 01:00:00 12,2 10,1 14 8 25 14 NE 1017,3 23 0,0
28.09.2020 00:00:00 12,2 10,3 14 7 25 13 NNE 1017,3 24 0,0
27.09.2020 23:00:00 12,2 10,8 12 7 25 14 NNE 1017,1 10 0,0
27.09.2020 22:00:00 12,3 10,7 12 6 26 14 NNE 1017,2 22 0,0
27.09.2020 21:00:00 12,5 10,0 13 7 27 15 NNE 1017,1 22 0,0
27.09.2020 20:00:00 12,6 9,8 14 8 27 15 NNE 1016,6 60 0,0
27.09.2020 19:00:00 12,8 10,0 16 8 27 14 NNE 1016,4 30 0,0
27.09.2020 18:00:00 12,9 10,1 11 6 25 13 NNE 1016,1 34 0,0
27.09.2020 17:00:00 13,2 10,2 13 7 31 17 NNE 1016,1 60 0,0
27.09.2020 16:00:00 13,1 9,7 16 9 31 17 NNE 1016,2 31 0,0
27.09.2020 15:00:00 12,7 9,4 13 7 30 16 NNE 1016,5 38 0,0
27.09.2020 14:00:00 12,7 9,2 16 8 34 18 NNE 1016,4 60 0,0
27.09.2020 13:00:00 12,0 8,9 15 8 30 16 NE 1016,5 36 0,0
27.09.2020 12:00:00 11,6 8,6 15 8 29 16 NNE 1016,5 36 0,0
27.09.2020 11:00:00 11,2 8,4 17 9 34 18 NNE 1016,3 60 0,0
27.09.2020 10:00:00 10,8 8,4 16 9 31 17 NNE 1016,0 38 0,0
27.09.2020 09:00:00 10,6 8,0 17 9 36 20 NNE 1015,7 47 0,0
27.09.2020 08:00:00 10,5 7,7 16 9 35 19 NNE 1015,4 70 0,0
27.09.2020 07:00:00 10,5 7,4 21 12 33 18 NNE 1015,0 50 0,0
27.09.2020 06:00:00 10,4 7,3 16 8 37 20 NNE 1014,7 50 0,0
27.09.2020 05:00:00 10,1 7,4 9 5 27 15 NNE 1014,5 50 0,0
27.09.2020 04:00:00 9,8 7,6 12 6 35 19 N 1014,4 50 0,0
27.09.2020 03:00:00 9,4 8,3 10 5 34 18 N 1014,2 35 1,2
27.09.2020 02:00:00 9,5 8,0 15 8 42 23 NNE 1014,2 27 0,5
27.09.2020 01:00:00 9,8 6,9 21 12 48 26 NNE 1013,7 27 0,0
27.09.2020 00:00:00 10,3 6,3 23 12 49 26 NNE 1013,6 50 0,0
26.09.2020 23:00:00 10,2 6,0 22 12 56 30 NNE 1012,9 55 0,0
26.09.2020 22:00:00 10,1 6,1 27 15 49 27 NNE 1012,4 50 0,0
26.09.2020 21:00:00 9,9 5,7 29 16 56 30 NNE 1012,1 50 0,0
26.09.2020 20:00:00 9,7 5,7 25 14 48 26 NNE 1011,2 70 0,0
26.09.2020 19:00:00 9,5 5,9 25 14 50 27 NNE 1010,5 50 0,0
26.09.2020 18:00:00 9,4 5,6 33 18 55 30 NNE 1009,4 50 0,0
26.09.2020 17:00:00 9,3 5,5 35 19 63 34 NNE 1008,5 70 0,0
26.09.2020 16:00:00 9,3 5,5 32 17 61 33 NNE 1007,6 50 0,0
26.09.2020 15:00:00 - - - - - - - - - -
26.09.2020 14:00:00 8,9 5,1 34 18 61 33 NNE 1006,8 55 0,0
26.09.2020 13:00:00 8,8 5,4 34 19 61 33 NNE 1006,1 50 0,0
26.09.2020 12:00:00 8,3 5,4 32 18 61 33 NNE 1005,5 8 0,0
26.09.2020 11:00:00 7,9 5,4 32 18 62 34 NNE 1004,6 55 0,2
26.09.2020 10:00:00 7,4 5,2 29 15 58 31 NNE 1003,9 - 0,4
26.09.2020 09:00:00 7,5 4,8 29 16 57 31 NNE 1003,1 11 0,2
26.09.2020 08:00:00 7,0 4,8 32 17 57 31 NNE 1002,5 15 0,9
26.09.2020 07:00:00 7,1 4,8 33 18 58 31 NNE 1001,6 13 1,8
26.09.2020 06:00:00 7,0 5,2 24 13 74 40 NNE 1001,6 8 4,6
26.09.2020 05:00:00 6,9 5,7 43 23 77 41 NNE 999,9 6 5,1
26.09.2020 04:00:00 7,2 5,8 37 20 73 40 NNE 1000,7 11 3,4
26.09.2020 03:00:00 7,3 6,1 36 19 68 37 NNE 1001,9 7 5,7
26.09.2020 02:00:00 7,6 5,9 33 18 59 32 NNE 1002,9 6 4,1
26.09.2020 01:00:00 9,0 4,6 32 17 55 30 NNE 1003,5 11 0,4
26.09.2020 00:00:00 10,0 4,2 32 18 54 29 NNE 1003,6 50 0,0
25.09.2020 23:00:00 9,8 5,4 31 17 49 26 NNE 1003,9 25 0,2
25.09.2020 22:00:00 9,5 5,9 26 14 49 26 NNE 1004,9 49 0,4
25.09.2020 21:00:00 10,0 7,1 25 13 40 22 NNE 1005,0 28 0,6
25.09.2020 20:00:00 10,8 6,9 23 12 44 24 NNE 1005,0 9 0,2
25.09.2020 19:00:00 11,8 6,7 16 8 29 15 NNE 1005,2 23 0,1
25.09.2020 18:00:00 12,6 5,8 20 11 35 19 NNE 1005,1 50 0,0
25.09.2020 17:00:00 12,8 5,7 21 11 34 19 NNE 1005,2 55 0,0
25.09.2020 16:00:00 12,9 5,8 19 10 31 17 NNE 1005,4 50 0,0
25.09.2020 15:00:00 13,0 5,7 17 9 32 17 NE 1005,3 49 0,0

tt = temperature
td = dewpoint
ff = wind speed
fx = gusts
dd = wind direction
ppp = reduced air pressure
vv = visibility
rr = precipitation

Next stations